Tracking 18852 objects as of 24-Nov-2017
HD Live streaming from Space Station
objects crossing your sky now

FENGYUN 1C DEB

Track FENGYUN 1C DEB now!
10-day predictions


NORAD ID: 31295
Int'l Code: 1999-025BPD
Perigee: 857.8 km
Apogee: 971.8 km
Inclination: 98.4 °
Period: 103.2 minutes
Semi major axis: 7285 km
RCS: 0.0104 m2 (small)
Launch date: May 10, 1999
Source: People's Republic of China (PRC)
Launch site: Taiyaun Space Center, China (TSC)

Note: This is SATELLITE DEBRIS
aabbcc
Your satellite tracking list
Your tracking list is empty




NASA's NSSDC Master Catalog

Two Line Element Set (TLE):
1 31295U 99025BPD 17328.10436898 -.00000215 +00000-0 -12556-3 0  9997
2 31295 098.3715 016.0138 0078251 195.1670 164.7148 13.95995030544677
Source of the keplerian elements: AFSPC